START_TIME,STEP,MOV.,M29,t_acc.,H22,t_acc.,H26,t_acc.,H30,t_acc.
1979-07-03 18:00:32.750 ,1,1,0.,24.0,0.,24.0,0.,24.0,0.,24.0
1979-07-03 18:00:56.750 ,2,1,0.,24.0,0.,24.0,0.,24.0,0.,24.0
1979-07-03 18:01:20.750 ,6,1,0.,24.0,0.,24.0,0.,24.0,0.,24.0
1979-07-03 18:01:44.750 ,5,1,1.,24.0,0.,24.0,0.,24.0,0.,24.0
1979-07-03 18:02:08.750 ,1,1,0.,24.0,0.,24.0,0.,24.0,0.,24.0
1979-07-03 18:02:32.750 ,2,1,0.,24.0,0.,24.0,0.,24.0,0.,24.0
1979-07-03 18:02:56.750 ,6,1,0.,24.0,0.,24.0,0.,24.0,0.,24.0
1979-07-03 18:03:20.750 ,5,1,0.,24.0,0.,24.0,0.,24.0,0.,24.0
1979-07-03 18:03:44.750 ,1,1,0.,24.0,0.,24.0,0.,24.0,0.,24.0
1979-07-03 18:04:08.750 ,2,1,0.,24.0,0.,24.0,0.,24.0,0.,24.0
1979-07-03 18:04:32.750 ,6,1,0.,24.0,0.,24.0,0.,24.0,0.,24.0
1979-07-03 18:04:56.750 ,5,1,0.,24.0,0.,24.0,0.,24.0,0.,24.0
1979-07-03 18:05:20.750 ,1,1,0.,24.0,0.,24.0,0.,24.0,0.,24.0
1979-07-03 18:05:44.750 ,0,0,0.,24.0,0.,24.0,0.,24.0,0.,24.0
1979-07-03 18:06:08.750 ,0,0,0.,24.0,0.,24.0,0.,24.0,0.,24.0
1979-07-03 18:06:32.750 ,5,1,0.,24.0,0.,24.0,0.,24.0,0.,24.0
1979-07-03 18:06:56.750 ,5,0,0.,24.0,0.,24.0,0.,24.0,0.,24.0
1979-07-03 18:07:20.750 ,4,1,0.,24.0,0.,24.0,0.,24.0,0.,24.0
1979-07-03 18:07:44.750 ,4,0,0.,24.0,0.,24.0,0.,24.0,0.,24.0
1979-07-03 18:08:08.750 ,3,1,0.,24.0,0.,24.0,0.,24.0,0.,24.0
1979-07-03 18:08:32.750 ,3,0,0.,24.0,0.,24.0,0.,24.0,0.,24.0
1979-07-03 18:08:56.750 ,2,1,0.,24.0,0.,24.0,0.,24.0,0.,24.0
1979-07-03 18:09:20.750 ,2,0,0.,24.0,0.,24.0,0.,24.0,0.,24.0
1979-07-03 18:09:44.750 ,1,1,0.,24.0,0.,24.0,0.,24.0,0.,24.0
1979-07-03 18:10:08.750 ,1,0,0.,24.0,0.,24.0,0.,24.0,0.,24.0
1979-07-03 18:10:32.750 ,0,1,0.,24.0,0.,24.0,0.,24.0,0.,24.0
1979-07-03 18:10:56.750 ,0,0,0.,24.0,0.,24.0,0.,24.0,0.,24.0
1979-07-03 18:17:32.750 ,0,0,,0,,0,,0,,0
1979-07-03 18:17:44.750 ,7,1,1.,24.0,0.,24.0,0.,24.0,0.,24.0
1979-07-03 18:18:08.750 ,7,0,0.,24.0,0.,24.0,0.,24.0,0.,24.0
1979-07-03 18:18:32.750 ,6,1,0.,24.0,0.,24.0,0.,24.0,0.,24.0
1979-07-03 18:18:56.750 ,6,0,0.,24.0,0.,24.0,0.,24.0,0.,24.0
1979-07-03 18:19:20.750 ,5,1,0.,24.0,0.,24.0,0.,24.0,0.,24.0
1979-07-03 18:19:44.750 ,5,0,0.,24.0,0.,24.0,0.,24.0,0.,24.0
1979-07-03 18:20:08.750 ,4,1,0.,24.0,0.,24.0,0.,24.0,0.,24.0
1979-07-03 18:20:32.750 ,4,0,0.,24.0,0.,24.0,0.,24.0,0.,24.0
1979-07-03 18:20:56.750 ,3,1,0.,24.0,0.,24.0,0.,24.0,0.,24.0
1979-07-03 18:21:20.750 ,3,0,0.,24.0,0.,24.0,0.,24.0,0.,24.0
1979-07-03 18:21:44.750 ,2,1,0.,24.0,0.,24.0,0.,24.0,0.,24.0
1979-07-03 18:22:08.750 ,2,0,0.,24.0,0.,24.0,0.,24.0,0.,24.0
1979-07-03 18:22:32.750 ,1,1,0.,24.0,0.,24.0,0.,24.0,0.,24.0
1979-07-03 18:22:56.750 ,1,0,0.,24.0,0.,24.0,0.,24.0,0.,24.0
1979-07-03 18:23:20.750 ,0,1,1.,24.0,0.,24.0,0.,24.0,0.,24.0
1979-07-03 18:23:44.750 ,0,0,0.,24.0,0.,24.0,0.,24.0,0.,24.0
1979-07-03 18:24:08.750 ,0,1,1.,24.0,0.,24.0,0.,24.0,0.,24.0
1979-07-03 18:24:32.750 ,0,0,0.,24.0,0.,24.0,0.,24.0,0.,24.0
1979-07-03 18:24:56.750 ,1,1,0.,24.0,0.,24.0,0.,24.0,0.,24.0
1979-07-03 18:25:20.750 ,1,0,0.,24.0,0.,24.0,0.,24.0,0.,24.0
1979-07-03 18:25:44.750 ,2,1,0.,24.0,0.,24.0,0.,24.0,0.,24.0
1979-07-03 18:26:08.750 ,2,0,0.,24.0,0.,24.0,0.,24.0,0.,24.0
1979-07-03 18:26:32.750 ,3,1,0.,24.0,0.,24.0,0.,24.0,0.,24.0
1979-07-03 18:26:56.750 ,3,0,0.,24.0,0.,24.0,0.,24.0,0.,24.0
1979-07-03 18:27:20.750 ,4,1,0.,24.0,0.,24.0,0.,24.0,0.,24.0
1979-07-03 18:27:44.750 ,4,0,0.,24.0,0.,24.0,0.,24.0,0.,24.0
1979-07-03 18:28:08.750 ,5,1,0.,24.0,0.,24.0,0.,24.0,0.,24.0
1979-07-03 18:28:32.750 ,5,0,0.,24.0,0.,24.0,0.,24.0,0.,24.0
1979-07-03 18:28:56.750 ,6,1,0.,24.0,0.,24.0,0.,24.0,0.,24.0
1979-07-03 18:29:20.750 ,6,0,0.,24.0,0.,24.0,0.,24.0,0.,24.0
1979-07-03 18:29:44.750 ,7,1,0.,24.0,0.,24.0,0.,24.0,0.,24.0
1979-07-03 18:30:08.750 ,7,0,0.,24.0,0.,24.0,0.,24.0,0.,24.0
1979-07-03 18:31:20.750 ,0,0,0.,24.0,0.,24.0,0.,24.0,0.,24.0
1979-07-03 18:31:44.750 ,0,0,0.,24.0,0.,24.0,0.,24.0,0.,24.0
1979-07-03 18:32:08.750 ,5,1,0.,24.0,0.,24.0,0.,24.0,0.,24.0
1979-07-03 18:32:32.750 ,5,0,0.,24.0,0.,24.0,0.,24.0,0.,24.0
1979-07-03 18:32:56.750 ,4,1,0.,24.0,0.,24.0,0.,24.0,0.,24.0
1979-07-03 18:33:20.750 ,4,0,0.,24.0,0.,24.0,0.,24.0,0.,24.0
1979-07-03 18:33:44.750 ,3,1,1.,24.0,0.,24.0,0.,24.0,0.,24.0
1979-07-03 18:34:08.750 ,3,0,0.,24.0,0.,24.0,0.,24.0,0.,24.0
1979-07-03 18:34:32.750 ,2,1,0.,24.0,0.,24.0,0.,24.0,0.,24.0
1979-07-03 18:34:56.750 ,2,0,0.,24.0,0.,24.0,0.,24.0,0.,24.0
1979-07-03 18:35:20.750 ,1,1,0.,24.0,0.,24.0,0.,24.0,0.,24.0
1979-07-03 18:35:44.750 ,1,0,0.,24.0,0.,24.0,0.,24.0,0.,24.0
1979-07-03 18:36:08.750 ,0,1,0.,24.0,0.,24.0,0.,24.0,0.,24.0
1979-07-03 18:36:32.750 ,0,0,0.,24.0,0.,24.0,0.,24.0,0.,24.0
1979-07-03 18:36:56.750 ,0,1,0.,24.0,0.,24.0,0.,24.0,0.,24.0
1979-07-03 18:37:20.750 ,0,0,0.,24.0,0.,24.0,0.,24.0,0.,24.0
1979-07-03 18:37:44.750 ,1,1,0.,24.0,0.,24.0,0.,24.0,0.,24.0
1979-07-03 18:38:08.750 ,1,0,0.,24.0,0.,24.0,0.,24.0,0.,24.0
1979-07-03 18:38:32.750 ,2,1,0.,24.0,0.,24.0,0.,24.0,0.,24.0
1979-07-03 18:38:56.750 ,2,0,0.,24.0,0.,24.0,0.,24.0,0.,24.0
1979-07-03 18:39:20.750 ,3,1,0.,24.0,0.,24.0,0.,24.0,0.,24.0
1979-07-03 18:39:44.750 ,3,0,0.,24.0,0.,24.0,0.,24.0,0.,24.0
1979-07-03 18:40:08.750 ,4,1,0.,24.0,0.,24.0,0.,24.0,0.,24.0
1979-07-03 18:40:32.750 ,4,0,0.,24.0,0.,24.0,0.,24.0,0.,24.0
1979-07-03 18:40:56.750 ,5,1,0.,24.0,0.,24.0,0.,24.0,0.,24.0
1979-07-03 18:41:20.750 ,5,0,0.,24.0,0.,24.0,0.,24.0,0.,24.0
1979-07-03 18:41:44.750 ,6,1,0.,24.0,0.,24.0,0.,24.0,0.,24.0
1979-07-03 18:42:08.750 ,6,0,0.,24.0,0.,24.0,0.,24.0,0.,24.0
1979-07-03 18:42:32.750 ,7,0,0.,24.0,0.,24.0,0.,24.0,0.,24.0
1979-07-03 18:42:56.750 ,7,0,0.,24.0,0.,24.0,0.,24.0,0.,24.0
1979-07-03 18:43:20.750 ,5,1,0.,24.0,0.,24.0,0.,24.0,0.,24.0
1979-07-03 18:43:44.750 ,1,1,0.,24.0,0.,24.0,0.,24.0,0.,24.0
1979-07-03 18:44:08.750 ,2,1,0.,24.0,0.,24.0,0.,24.0,0.,24.0
1979-07-03 18:44:32.750 ,6,1,0.,24.0,0.,24.0,0.,24.0,0.,24.0
1979-07-03 18:44:56.750 ,5,1,0.,24.0,0.,24.0,0.,24.0,0.,24.0
1979-07-03 18:45:20.750 ,1,1,0.,24.0,0.,24.0,0.,24.0,0.,24.0
1979-07-03 18:45:44.750 ,2,1,0.,24.0,0.,24.0,0.,24.0,0.,24.0
1979-07-03 18:46:08.750 ,6,1,0.,24.0,0.,24.0,0.,24.0,0.,24.0
1979-07-03 18:46:32.750 ,5,1,0.,24.0,0.,24.0,0.,24.0,0.,24.0
1979-07-03 18:46:56.750 ,1,1,0.,24.0,0.,24.0,0.,24.0,0.,24.0
1979-07-03 18:47:20.750 ,2,1,0.,24.0,0.,24.0,0.,24.0,0.,24.0
1979-07-03 18:47:44.750 ,6,1,1.,24.0,0.,24.0,0.,24.0,0.,24.0
1979-07-03 18:48:08.750 ,5,1,0.,24.0,0.,24.0,0.,24.0,0.,24.0
1979-07-03 18:48:32.750 ,1,1,0.,24.0,0.,24.0,0.,24.0,0.,24.0
1979-07-03 18:48:56.750 ,2,1,0.,24.0,0.,24.0,0.,24.0,0.,24.0
1979-07-03 18:49:20.750 ,6,1,1.,24.0,0.,24.0,0.,24.0,0.,24.0
1979-07-03 18:49:44.750 ,5,1,0.,24.0,0.,24.0,0.,24.0,0.,24.0
1979-07-03 18:50:08.750 ,1,1,0.,24.0,0.,24.0,0.,24.0,0.,24.0
1979-07-03 18:50:32.750 ,2,1,0.,24.0,0.,24.0,0.,24.0,0.,24.0
1979-07-03 18:50:56.750 ,6,1,1.,24.0,0.,24.0,0.,24.0,0.,24.0
1979-07-03 18:51:20.750 ,5,1,0.,24.0,0.,24.0,0.,24.0,0.,24.0
1979-07-03 18:51:44.750 ,1,1,0.,24.0,0.,24.0,0.,24.0,0.,24.0
1979-07-03 18:52:08.750 ,2,1,0.,24.0,0.,24.0,0.,24.0,0.,24.0
1979-07-03 18:52:32.750 ,6,1,0.,24.0,0.,24.0,0.,24.0,0.,24.0
1979-07-03 18:52:56.750 ,5,1,0.,24.0,0.,24.0,0.,24.0,0.,24.0
1979-07-03 18:53:20.750 ,1,1,0.,24.0,0.,24.0,0.,24.0,0.,24.0
1979-07-03 18:53:44.750 ,0,0,0.,24.0,0.,24.0,0.,24.0,0.,24.0
1979-07-03 18:54:08.750 ,0,0,0.,24.0,0.,24.0,0.,24.0,0.,24.0
1979-07-03 18:54:32.750 ,5,1,0.,24.0,0.,24.0,0.,24.0,0.,24.0
1979-07-03 18:54:56.750 ,5,0,0.,24.0,0.,24.0,0.,24.0,0.,24.0
1979-07-03 18:55:20.750 ,4,1,0.,24.0,0.,24.0,0.,24.0,0.,24.0
1979-07-03 18:55:44.750 ,4,0,0.,24.0,0.,24.0,0.,24.0,0.,24.0
1979-07-03 18:56:08.750 ,3,0,,0,,0,,0,,0
1979-07-03 18:56:32.750 ,3,0,0.,24.0,0.,24.0,0.,24.0,0.,24.0
1979-07-03 18:56:56.750 ,2,1,0.,24.0,0.,24.0,0.,24.0,0.,24.0
1979-07-03 18:57:20.750 ,2,0,0.,24.0,0.,24.0,0.,24.0,0.,24.0
1979-07-03 18:57:44.750 ,1,1,0.,24.0,0.,24.0,0.,24.0,0.,24.0
1979-07-03 18:58:08.750 ,1,0,0.,24.0,0.,24.0,0.,24.0,0.,24.0
1979-07-03 18:58:32.750 ,0,1,0.,24.0,0.,24.0,0.,24.0,0.,24.0
1979-07-03 18:58:56.750 ,0,0,0.,24.0,0.,24.0,0.,24.0,0.,24.0
1979-07-03 18:59:20.750 ,0,1,0.,24.0,0.,24.0,0.,24.0,0.,24.0
1979-07-03 18:59:44.750 ,0,0,0.,24.0,0.,24.0,0.,24.0,0.,24.0
1979-07-03 19:00:08.750 ,1,1,0.,24.0,0.,24.0,0.,24.0,0.,24.0
1979-07-03 19:00:32.750 ,1,0,0.,24.0,0.,24.0,0.,24.0,0.,24.0
1979-07-03 19:00:56.750 ,2,1,0.,24.0,0.,24.0,0.,24.0,0.,24.0
1979-07-03 19:01:20.750 ,2,0,1.,24.0,0.,24.0,0.,24.0,0.,24.0
1979-07-03 19:01:44.750 ,3,1,0.,24.0,0.,24.0,0.,24.0,0.,24.0
1979-07-03 19:02:08.750 ,3,0,0.,24.0,0.,24.0,0.,24.0,0.,24.0
1979-07-03 19:02:32.750 ,4,1,1.,24.0,0.,24.0,0.,24.0,0.,24.0
1979-07-03 19:02:56.750 ,4,0,0.,24.0,0.,24.0,0.,24.0,0.,24.0
1979-07-03 19:03:20.750 ,5,1,0.,24.0,0.,24.0,0.,24.0,0.,24.0
1979-07-03 19:03:44.750 ,5,0,0.,24.0,0.,24.0,0.,24.0,0.,24.0
1979-07-03 19:04:08.750 ,6,1,0.,24.0,0.,24.0,0.,24.0,0.,24.0
1979-07-03 19:04:32.750 ,6,0,0.,24.0,0.,24.0,0.,24.0,0.,24.0
1979-07-03 19:04:56.750 ,7,1,0.,24.0,0.,24.0,0.,24.0,0.,24.0
1979-07-03 19:05:20.750 ,7,0,0.,24.0,0.,24.0,0.,24.0,0.,24.0
1979-07-03 19:05:44.750 ,7,1,0.,24.0,0.,24.0,0.,24.0,0.,24.0
1979-07-03 19:06:08.750 ,7,0,0.,24.0,0.,24.0,0.,24.0,0.,24.0
1979-07-03 19:06:32.750 ,6,1,0.,24.0,0.,24.0,0.,24.0,0.,24.0
1979-07-03 19:06:56.750 ,6,0,0.,24.0,0.,24.0,0.,24.0,0.,24.0
1979-07-03 19:07:20.750 ,5,1,0.,24.0,0.,24.0,0.,24.0,0.,24.0
1979-07-03 19:07:44.750 ,5,0,0.,24.0,0.,24.0,0.,24.0,0.,24.0
1979-07-03 19:08:08.750 ,4,1,0.,24.0,0.,24.0,0.,24.0,0.,24.0
1979-07-03 19:08:32.750 ,4,0,0.,24.0,0.,24.0,0.,24.0,0.,24.0
1979-07-03 19:08:56.750 ,3,1,0.,24.0,0.,24.0,0.,24.0,0.,24.0
1979-07-03 19:09:20.750 ,3,0,0.,24.0,0.,24.0,0.,24.0,0.,24.0
1979-07-03 19:09:44.750 ,2,1,0.,24.0,0.,24.0,0.,24.0,0.,24.0
1979-07-03 19:10:08.750 ,2,0,0.,24.0,0.,24.0,0.,24.0,0.,24.0
1979-07-03 19:10:32.750 ,1,1,0.,24.0,0.,24.0,0.,24.0,0.,24.0
1979-07-03 19:10:56.750 ,1,0,0.,24.0,0.,24.0,0.,24.0,0.,24.0
1979-07-03 19:11:20.750 ,0,1,0.,24.0,0.,24.0,0.,24.0,0.,24.0
1979-07-03 19:11:44.750 ,0,0,0.,24.0,0.,24.0,0.,24.0,0.,24.0
1979-07-03 19:12:08.750 ,0,1,0.,24.0,0.,24.0,0.,24.0,0.,24.0
1979-07-03 19:12:32.750 ,0,0,0.,24.0,0.,24.0,0.,24.0,0.,24.0
1979-07-03 19:12:56.750 ,1,1,0.,24.0,0.,24.0,0.,24.0,0.,24.0
1979-07-03 19:13:20.750 ,1,0,0.,24.0,0.,24.0,0.,24.0,0.,24.0
1979-07-03 19:13:44.750 ,2,1,0.,24.0,0.,24.0,0.,24.0,0.,24.0
1979-07-03 19:14:08.750 ,2,0,0.,24.0,0.,24.0,0.,24.0,0.,24.0
1979-07-03 19:14:32.750 ,3,1,0.,24.0,0.,24.0,0.,24.0,0.,24.0
1979-07-03 19:14:56.750 ,3,0,0.,24.0,0.,24.0,0.,24.0,0.,24.0
1979-07-03 19:15:20.750 ,4,1,0.,24.0,0.,24.0,0.,24.0,0.,24.0
1979-07-03 19:15:44.750 ,4,0,0.,24.0,0.,24.0,0.,24.0,0.,24.0
1979-07-03 19:16:08.750 ,5,1,0.,24.0,0.,24.0,0.,24.0,0.,24.0
1979-07-03 19:16:32.750 ,5,0,0.,24.0,0.,24.0,0.,24.0,0.,24.0
1979-07-03 19:16:56.750 ,6,1,0.,24.0,0.,24.0,0.,24.0,0.,24.0
1979-07-03 19:17:20.750 ,6,0,0.,24.0,0.,24.0,0.,24.0,0.,24.0
1979-07-03 19:17:44.750 ,7,1,0.,24.0,0.,24.0,0.,24.0,0.,24.0
1979-07-03 19:18:08.750 ,7,0,0.,24.0,0.,24.0,0.,24.0,0.,24.0
1979-07-03 19:18:32.750 ,7,1,0.,24.0,0.,24.0,0.,24.0,0.,24.0
1979-07-03 19:18:56.750 ,7,0,0.,24.0,0.,24.0,0.,24.0,0.,24.0
1979-07-03 19:19:20.750 ,6,1,0.,24.0,0.,24.0,0.,24.0,0.,24.0
1979-07-03 19:19:44.750 ,6,0,0.,24.0,0.,24.0,0.,24.0,0.,24.0
1979-07-03 19:20:08.750 ,5,1,0.,24.0,0.,24.0,0.,24.0,0.,24.0
1979-07-03 19:20:32.750 ,5,0,0.,24.0,0.,24.0,0.,24.0,0.,24.0
1979-07-03 19:20:56.750 ,4,1,0.,24.0,0.,24.0,0.,24.0,0.,24.0
1979-07-03 19:21:20.750 ,4,0,0.,24.0,0.,24.0,0.,24.0,0.,24.0
1979-07-03 19:21:44.750 ,3,1,0.,24.0,0.,24.0,0.,24.0,0.,24.0
1979-07-03 19:22:08.750 ,3,0,0.,24.0,0.,24.0,0.,24.0,0.,24.0
1979-07-03 19:22:32.750 ,2,1,0.,24.0,0.,24.0,0.,24.0,0.,24.0
1979-07-03 19:22:56.750 ,2,0,0.,24.0,0.,24.0,0.,24.0,0.,24.0
1979-07-03 19:23:20.750 ,1,1,1.,24.0,0.,24.0,0.,24.0,0.,24.0
1979-07-03 19:23:44.750 ,1,0,0.,24.0,0.,24.0,0.,24.0,0.,24.0
1979-07-03 19:24:08.750 ,0,1,0.,24.0,0.,24.0,0.,24.0,0.,24.0
1979-07-03 19:24:32.750 ,0,0,0.,24.0,0.,24.0,0.,24.0,0.,24.0
1979-07-03 19:24:56.750 ,0,1,0.,24.0,0.,24.0,0.,24.0,0.,24.0
1979-07-03 19:25:20.750 ,0,0,0.,24.0,0.,24.0,0.,24.0,0.,24.0
1979-07-03 19:25:44.750 ,1,1,0.,24.0,0.,24.0,0.,24.0,0.,24.0
1979-07-03 19:26:08.750 ,1,0,0.,24.0,0.,24.0,0.,24.0,0.,24.0
1979-07-03 19:26:32.740 ,2,1,0.,24.0,0.,24.0,0.,24.0,0.,24.0
1979-07-03 19:26:56.740 ,2,0,0.,24.0,0.,24.0,0.,24.0,0.,24.0
1979-07-03 19:27:20.740 ,3,1,0.,24.0,0.,24.0,0.,24.0,0.,24.0
1979-07-03 19:27:44.740 ,3,0,1.,24.0,0.,24.0,0.,24.0,0.,24.0
1979-07-03 19:28:08.740 ,4,1,0.,24.0,0.,24.0,0.,24.0,0.,24.0
1979-07-03 19:28:32.740 ,4,0,0.,24.0,0.,24.0,0.,24.0,0.,24.0
1979-07-03 19:28:56.740 ,5,1,0.,24.0,0.,24.0,0.,24.0,0.,24.0
1979-07-03 19:29:20.740 ,5,0,0.,24.0,0.,24.0,0.,24.0,0.,24.0
1979-07-03 19:29:44.740 ,6,1,0.,24.0,0.,24.0,0.,24.0,0.,24.0
1979-07-03 19:30:08.740 ,6,0,0.,24.0,0.,24.0,0.,24.0,0.,24.0
1979-07-03 19:30:32.740 ,7,0,0.,24.0,0.,24.0,0.,24.0,0.,24.0
1979-07-03 19:30:56.740 ,7,0,0.,24.0,0.,24.0,0.,24.0,0.,24.0
1979-07-03 19:31:20.740 ,5,1,0.,24.0,0.,24.0,0.,24.0,0.,24.0
1979-07-03 19:31:44.740 ,1,1,0.,24.0,0.,24.0,0.,24.0,0.,24.0
1979-07-03 19:32:08.740 ,2,1,0.,24.0,0.,24.0,0.,24.0,0.,24.0
1979-07-03 19:32:32.740 ,6,1,0.,24.0,0.,24.0,0.,24.0,0.,24.0
1979-07-03 19:32:56.740 ,5,1,0.,24.0,0.,24.0,0.,24.0,0.,24.0
1979-07-03 19:33:20.740 ,1,1,0.,24.0,0.,24.0,0.,24.0,0.,24.0
1979-07-03 19:33:44.740 ,2,1,0.,24.0,0.,24.0,0.,24.0,0.,24.0
1979-07-03 19:34:08.740 ,6,1,0.,24.0,0.,24.0,0.,24.0,0.,24.0
1979-07-03 19:34:32.740 ,5,1,0.,24.0,0.,24.0,0.,24.0,0.,24.0
1979-07-03 19:34:56.740 ,1,1,0.,24.0,0.,24.0,0.,24.0,0.,24.0
1979-07-03 19:35:20.740 ,2,1,0.,24.0,0.,24.0,0.,24.0,0.,24.0
1979-07-03 19:35:44.740 ,6,1,0.,24.0,0.,24.0,0.,24.0,0.,24.0
1979-07-03 19:36:08.740 ,5,1,0.,24.0,0.,24.0,0.,24.0,0.,24.0
1979-07-03 19:36:32.740 ,1,1,1.,24.0,0.,24.0,0.,24.0,0.,24.0
1979-07-03 19:36:56.740 ,2,1,0.,24.0,0.,24.0,0.,24.0,0.,24.0
1979-07-03 19:37:20.740 ,6,1,0.,24.0,0.,24.0,0.,24.0,0.,24.0
1979-07-03 19:37:44.740 ,5,1,0.,24.0,0.,24.0,0.,24.0,0.,24.0
1979-07-03 19:38:08.740 ,1,1,0.,24.0,0.,24.0,0.,24.0,0.,24.0
1979-07-03 19:38:32.740 ,2,1,0.,24.0,0.,24.0,0.,24.0,0.,24.0
1979-07-03 19:38:56.740 ,6,1,0.,24.0,0.,24.0,0.,24.0,0.,24.0
1979-07-03 19:39:20.740 ,5,1,0.,24.0,0.,24.0,0.,24.0,0.,24.0
1979-07-03 19:39:44.740 ,1,1,0.,24.0,0.,24.0,0.,24.0,0.,24.0
1979-07-03 19:40:08.740 ,2,1,0.,24.0,0.,24.0,0.,24.0,0.,24.0
1979-07-03 19:40:32.740 ,6,1,0.,24.0,0.,24.0,0.,24.0,0.,24.0
1979-07-03 19:40:56.740 ,5,1,0.,24.0,0.,24.0,0.,24.0,0.,24.0
1979-07-03 19:41:20.740 ,1,1,0.,24.0,0.,24.0,0.,24.0,0.,24.0
1979-07-03 19:41:44.740 ,0,0,0.,24.0,0.,24.0,0.,24.0,0.,24.0
1979-07-03 19:42:08.740 ,0,0,0.,24.0,0.,24.0,0.,24.0,0.,24.0
1979-07-03 19:42:32.740 ,5,1,0.,24.0,0.,24.0,0.,24.0,0.,24.0
1979-07-03 19:42:56.740 ,5,0,0.,24.0,0.,24.0,0.,24.0,0.,24.0
1979-07-03 19:43:20.740 ,4,1,0.,24.0,0.,24.0,0.,24.0,0.,24.0
1979-07-03 19:43:44.740 ,4,0,0.,24.0,0.,24.0,0.,24.0,0.,24.0
1979-07-03 19:44:08.740 ,3,1,0.,24.0,0.,24.0,0.,24.0,0.,24.0
1979-07-03 19:44:32.740 ,3,0,0.,24.0,0.,24.0,0.,24.0,0.,24.0
1979-07-03 19:45:44.740 ,0,0,0.,24.0,0.,24.0,0.,24.0,0.,24.0
1979-07-03 19:46:08.740 ,0,0,0.,24.0,0.,24.0,0.,24.0,0.,24.0
1979-07-03 19:46:32.740 ,0,1,0.,24.0,0.,24.0,0.,24.0,0.,24.0
1979-07-03 19:46:56.740 ,0,0,0.,24.0,0.,24.0,0.,24.0,0.,24.0
1979-07-03 19:47:20.740 ,0,1,0.,24.0,0.,24.0,0.,24.0,0.,24.0
1979-07-03 19:47:44.740 ,0,0,0.,24.0,0.,24.0,0.,24.0,0.,24.0
1979-07-03 19:48:08.740 ,1,1,0.,24.0,0.,24.0,0.,24.0,0.,24.0
1979-07-03 19:48:32.740 ,1,0,0.,24.0,0.,24.0,0.,24.0,0.,24.0
1979-07-03 19:48:56.740 ,2,1,0.,24.0,0.,24.0,0.,24.0,0.,24.0
1979-07-03 19:49:20.740 ,2,0,0.,24.0,0.,24.0,0.,24.0,0.,24.0
1979-07-03 19:49:44.740 ,3,1,0.,24.0,0.,24.0,0.,24.0,0.,24.0
1979-07-03 19:50:08.740 ,3,0,0.,24.0,0.,24.0,0.,24.0,0.,24.0
1979-07-03 19:50:32.740 ,4,1,0.,24.0,0.,24.0,0.,24.0,0.,24.0
1979-07-03 19:50:56.740 ,4,0,0.,24.0,0.,24.0,0.,24.0,0.,24.0
1979-07-03 19:51:20.740 ,5,1,0.,24.0,0.,24.0,0.,24.0,0.,24.0
1979-07-03 19:51:44.740 ,5,0,0.,24.0,0.,24.0,0.,24.0,0.,24.0
1979-07-03 19:52:08.740 ,6,1,0.,24.0,0.,24.0,0.,24.0,0.,24.0
1979-07-03 19:52:32.740 ,6,0,0.,24.0,0.,24.0,0.,24.0,0.,24.0
1979-07-03 19:52:56.740 ,7,1,0.,24.0,0.,24.0,0.,24.0,0.,24.0
1979-07-03 19:53:20.740 ,7,0,0.,24.0,0.,24.0,0.,24.0,0.,24.0
1979-07-03 19:53:44.740 ,7,1,0.,24.0,0.,24.0,0.,24.0,0.,24.0
1979-07-03 19:54:08.740 ,7,0,0.,24.0,0.,24.0,0.,24.0,0.,24.0
1979-07-03 19:54:32.740 ,6,1,0.,24.0,0.,24.0,0.,24.0,0.,24.0
1979-07-03 19:54:56.740 ,6,0,0.,24.0,0.,24.0,0.,24.0,0.,24.0
1979-07-03 19:55:20.740 ,5,1,0.,24.0,0.,24.0,0.,24.0,0.,24.0
1979-07-03 19:55:44.740 ,5,0,0.,24.0,0.,24.0,0.,24.0,0.,24.0
1979-07-03 19:56:08.740 ,4,1,0.,24.0,0.,24.0,0.,24.0,0.,24.0
1979-07-03 19:56:32.740 ,4,0,0.,24.0,0.,24.0,0.,24.0,0.,24.0
1979-07-03 19:56:56.740 ,3,1,0.,24.0,0.,24.0,0.,24.0,0.,24.0
1979-07-03 19:57:20.740 ,3,0,0.,24.0,0.,24.0,0.,24.0,0.,24.0
1979-07-03 19:57:44.740 ,2,1,0.,24.0,0.,24.0,0.,24.0,0.,24.0
1979-07-03 19:58:08.740 ,2,0,1.,24.0,0.,24.0,0.,24.0,0.,24.0
1979-07-03 19:58:32.740 ,1,1,0.,24.0,0.,24.0,0.,24.0,0.,24.0
1979-07-03 19:58:56.740 ,1,0,0.,24.0,0.,24.0,0.,24.0,0.,24.0
1979-07-03 19:59:20.740 ,0,1,0.,24.0,0.,24.0,0.,24.0,0.,24.0
1979-07-03 19:59:44.740 ,0,0,0.,24.0,0.,24.0,0.,24.0,0.,24.0
1979-07-03 20:00:08.740 ,0,1,0.,24.0,0.,24.0,0.,24.0,0.,24.0
1979-07-03 20:00:32.740 ,0,0,0.,24.0,0.,24.0,0.,24.0,0.,24.0
1979-07-03 20:00:56.740 ,1,1,0.,24.0,0.,24.0,0.,24.0,0.,24.0
1979-07-03 20:01:20.740 ,1,0,0.,24.0,0.,24.0,0.,24.0,0.,24.0
1979-07-03 20:01:44.740 ,2,1,0.,24.0,0.,24.0,0.,24.0,0.,24.0
1979-07-03 20:02:08.740 ,2,0,0.,24.0,0.,24.0,0.,24.0,0.,24.0
1979-07-03 20:02:32.740 ,3,1,0.,24.0,0.,24.0,0.,24.0,0.,24.0
1979-07-03 20:02:56.740 ,3,0,0.,24.0,0.,24.0,0.,24.0,0.,24.0
1979-07-03 20:03:20.740 ,4,1,0.,24.0,0.,24.0,0.,24.0,0.,24.0
1979-07-03 20:03:44.740 ,4,0,0.,24.0,0.,24.0,0.,24.0,0.,24.0
1979-07-03 20:04:08.740 ,5,1,0.,24.0,0.,24.0,0.,24.0,0.,24.0
1979-07-03 20:04:32.740 ,5,0,0.,24.0,0.,24.0,0.,24.0,0.,24.0
1979-07-03 20:04:56.740 ,6,1,0.,24.0,0.,24.0,0.,24.0,0.,24.0
1979-07-03 20:05:20.740 ,6,0,0.,24.0,0.,24.0,0.,24.0,0.,24.0
1979-07-03 20:05:44.740 ,7,1,0.,24.0,0.,24.0,0.,24.0,0.,24.0
1979-07-03 20:06:08.740 ,7,0,0.,24.0,0.,24.0,0.,24.0,0.,24.0
1979-07-03 20:06:32.740 ,7,1,0.,24.0,0.,24.0,0.,24.0,0.,24.0
1979-07-03 20:06:56.740 ,7,0,0.,24.0,0.,24.0,0.,24.0,0.,24.0
1979-07-03 20:07:20.740 ,6,1,0.,24.0,0.,24.0,0.,24.0,0.,24.0
1979-07-03 20:07:44.740 ,6,0,0.,24.0,0.,24.0,0.,24.0,0.,24.0
1979-07-03 20:08:08.740 ,5,1,0.,24.0,0.,24.0,0.,24.0,0.,24.0
1979-07-03 20:08:32.740 ,5,0,0.,24.0,0.,24.0,0.,24.0,0.,24.0
1979-07-03 20:08:56.740 ,4,1,0.,24.0,0.,24.0,0.,24.0,0.,24.0
1979-07-03 20:09:20.740 ,4,0,0.,24.0,0.,24.0,0.,24.0,0.,24.0
1979-07-03 20:09:44.740 ,3,1,0.,24.0,0.,24.0,0.,24.0,0.,24.0
1979-07-03 20:10:08.740 ,3,0,0.,24.0,0.,24.0,0.,24.0,0.,24.0
1979-07-03 20:10:32.740 ,2,1,0.,24.0,0.,24.0,0.,24.0,0.,24.0
1979-07-03 20:10:56.740 ,2,0,0.,24.0,0.,24.0,0.,24.0,0.,24.0
1979-07-03 20:11:20.740 ,1,1,0.,24.0,0.,24.0,0.,24.0,0.,24.0
1979-07-03 20:11:44.740 ,1,0,0.,24.0,0.,24.0,0.,24.0,0.,24.0
1979-07-03 20:12:08.740 ,0,1,0.,24.0,0.,24.0,0.,24.0,0.,24.0
1979-07-03 20:12:32.740 ,0,0,0.,24.0,0.,24.0,0.,24.0,0.,24.0
1979-07-03 20:12:56.740 ,0,1,0.,24.0,0.,24.0,0.,24.0,0.,24.0
1979-07-03 20:13:20.740 ,0,0,0.,24.0,0.,24.0,0.,24.0,0.,24.0
1979-07-03 20:13:44.740 ,1,1,0.,24.0,0.,24.0,0.,24.0,0.,24.0
1979-07-03 20:14:08.740 ,1,0,0.,24.0,0.,24.0,0.,24.0,0.,24.0
1979-07-03 20:14:32.740 ,2,1,0.,24.0,0.,24.0,0.,24.0,0.,24.0
1979-07-03 20:14:56.740 ,2,0,0.,24.0,0.,24.0,0.,24.0,0.,24.0
1979-07-03 20:15:20.740 ,3,1,0.,24.0,0.,24.0,0.,24.0,0.,24.0
1979-07-03 20:15:44.740 ,3,0,0.,24.0,0.,24.0,0.,24.0,0.,24.0
1979-07-03 20:16:08.740 ,4,1,0.,24.0,0.,24.0,0.,24.0,0.,24.0
1979-07-03 20:16:32.740 ,4,0,0.,24.0,0.,24.0,0.,24.0,0.,24.0
1979-07-03 20:16:56.740 ,5,1,0.,24.0,0.,24.0,0.,24.0,0.,24.0
1979-07-03 20:17:20.740 ,5,0,1.,24.0,0.,24.0,0.,24.0,0.,24.0
1979-07-03 20:17:44.740 ,6,1,0.,24.0,0.,24.0,0.,24.0,0.,24.0
1979-07-03 20:18:08.740 ,6,0,0.,24.0,0.,24.0,0.,24.0,0.,24.0
1979-07-03 20:18:32.740 ,7,0,0.,24.0,0.,24.0,0.,24.0,0.,24.0
1979-07-03 20:18:56.740 ,7,0,0.,24.0,0.,24.0,0.,24.0,0.,24.0
1979-07-03 20:19:20.740 ,5,1,0.,24.0,0.,24.0,0.,24.0,0.,24.0
1979-07-03 20:19:44.740 ,1,1,0.,24.0,0.,24.0,0.,24.0,0.,24.0
1979-07-03 20:20:08.740 ,2,1,0.,24.0,0.,24.0,0.,24.0,0.,24.0
1979-07-03 20:20:32.740 ,6,1,0.,24.0,0.,24.0,0.,24.0,0.,24.0
1979-07-03 20:20:56.740 ,5,1,0.,24.0,0.,24.0,0.,24.0,0.,24.0
1979-07-03 20:21:20.740 ,1,1,0.,24.0,0.,24.0,0.,24.0,0.,24.0
1979-07-03 20:21:44.740 ,2,1,0.,24.0,0.,24.0,0.,24.0,0.,24.0
1979-07-03 20:22:08.740 ,6,1,0.,24.0,0.,24.0,0.,24.0,0.,24.0
1979-07-03 20:22:32.740 ,5,1,0.,24.0,0.,24.0,0.,24.0,0.,24.0
1979-07-03 20:22:56.740 ,1,1,0.,24.0,0.,24.0,0.,24.0,0.,24.0
1979-07-03 20:23:20.740 ,2,1,0.,24.0,0.,24.0,0.,24.0,0.,24.0
1979-07-03 20:23:44.740 ,6,1,0.,24.0,0.,24.0,0.,24.0,0.,24.0
1979-07-03 20:24:08.740 ,5,1,0.,24.0,0.,24.0,0.,24.0,0.,24.0
1979-07-03 20:24:32.740 ,1,1,0.,24.0,0.,24.0,0.,24.0,0.,24.0
1979-07-03 20:24:56.740 ,2,1,0.,24.0,0.,24.0,0.,24.0,0.,24.0
1979-07-03 20:25:20.740 ,6,1,0.,24.0,0.,24.0,0.,24.0,0.,24.0
1979-07-03 20:25:44.740 ,5,1,0.,24.0,0.,24.0,0.,24.0,0.,24.0
1979-07-03 20:26:08.740 ,1,1,0.,24.0,0.,24.0,0.,24.0,0.,24.0
1979-07-03 20:26:32.740 ,2,1,0.,24.0,0.,24.0,0.,24.0,0.,24.0
1979-07-03 20:26:56.740 ,6,1,0.,24.0,0.,24.0,0.,24.0,0.,24.0
1979-07-03 20:27:20.740 ,5,1,0.,24.0,0.,24.0,0.,24.0,0.,24.0
1979-07-03 20:27:44.740 ,1,1,1.,24.0,0.,24.0,0.,24.0,0.,24.0
1979-07-03 20:28:08.740 ,2,1,0.,24.0,0.,24.0,0.,24.0,0.,24.0
1979-07-03 20:28:32.740 ,6,1,0.,24.0,0.,24.0,0.,24.0,0.,24.0
1979-07-03 20:28:56.740 ,5,1,0.,24.0,0.,24.0,0.,24.0,0.,24.0
1979-07-03 20:29:20.740 ,1,1,0.,24.0,0.,24.0,0.,24.0,0.,24.0
1979-07-03 20:29:44.740 ,0,0,0.,24.0,0.,24.0,0.,24.0,0.,24.0
1979-07-03 20:30:08.740 ,0,0,0.,24.0,0.,24.0,0.,24.0,0.,24.0
1979-07-03 20:30:32.740 ,5,1,0.,24.0,0.,24.0,0.,24.0,0.,24.0
1979-07-03 20:30:56.740 ,5,0,0.,24.0,0.,24.0,0.,24.0,0.,24.0
1979-07-03 20:31:20.740 ,4,1,0.,24.0,0.,24.0,0.,24.0,0.,24.0
1979-07-03 20:31:44.740 ,4,0,0.,24.0,0.,24.0,0.,24.0,0.,24.0
1979-07-03 20:32:08.740 ,3,1,0.,24.0,0.,24.0,0.,24.0,0.,24.0
1979-07-03 20:32:32.740 ,3,0,0.,24.0,0.,24.0,0.,24.0,0.,24.0
1979-07-03 20:32:56.740 ,2,1,0.,24.0,0.,24.0,0.,24.0,0.,24.0
1979-07-03 20:33:20.740 ,2,0,0.,24.0,0.,24.0,0.,24.0,0.,24.0
1979-07-03 20:33:44.740 ,1,1,0.,24.0,0.,24.0,0.,24.0,0.,24.0
1979-07-03 20:34:08.740 ,1,0,1.,24.0,0.,24.0,0.,24.0,0.,24.0
1979-07-03 20:34:32.740 ,0,1,0.,24.0,0.,24.0,0.,24.0,0.,24.0
1979-07-03 20:34:56.740 ,0,0,0.,24.0,0.,24.0,0.,24.0,0.,24.0
1979-07-03 20:35:20.740 ,0,1,0.,24.0,0.,24.0,0.,24.0,0.,24.0
1979-07-03 20:35:44.740 ,0,0,0.,24.0,0.,24.0,0.,24.0,0.,24.0
1979-07-03 20:36:08.740 ,1,1,0.,24.0,0.,24.0,0.,24.0,0.,24.0
1979-07-03 20:36:32.740 ,1,0,0.,24.0,0.,24.0,0.,24.0,0.,24.0
1979-07-03 20:36:56.740 ,2,1,0.,24.0,0.,24.0,0.,24.0,0.,24.0
1979-07-03 20:37:20.740 ,2,0,0.,24.0,0.,24.0,0.,24.0,0.,24.0
1979-07-03 20:37:44.740 ,3,1,0.,24.0,0.,24.0,0.,24.0,0.,24.0
1979-07-03 20:38:08.740 ,3,0,0.,24.0,0.,24.0,0.,24.0,0.,24.0
1979-07-03 20:38:32.740 ,4,1,0.,24.0,0.,24.0,0.,24.0,0.,24.0
1979-07-03 20:38:56.740 ,4,0,0.,24.0,0.,24.0,0.,24.0,0.,24.0
1979-07-03 20:39:20.740 ,5,1,0.,24.0,0.,24.0,0.,24.0,0.,24.0
1979-07-03 20:39:44.740 ,5,0,0.,24.0,0.,24.0,0.,24.0,0.,24.0
1979-07-03 20:40:08.740 ,6,1,0.,24.0,0.,24.0,0.,24.0,0.,24.0
1979-07-03 20:40:32.740 ,6,0,0.,24.0,0.,24.0,0.,24.0,0.,24.0
1979-07-03 20:40:56.740 ,7,1,0.,24.0,0.,24.0,0.,24.0,0.,24.0
1979-07-03 20:41:20.740 ,7,0,0.,24.0,0.,24.0,0.,24.0,0.,24.0
1979-07-03 20:41:44.740 ,7,1,0.,24.0,0.,24.0,0.,24.0,0.,24.0
1979-07-03 20:42:08.740 ,7,0,0.,24.0,0.,24.0,0.,24.0,0.,24.0